User: anonymous   Login
Location: *
(52.2090°N, 4.1550°W)
Time: 08:55:06
(UTC+00:00)
Language:

Cosmos 1862 - Orbit

View from above orbital plane
View from above orbital plane
View from above satellite
View from above satellite

Ground track
Ground track

The orbit data is extracted from the following two-line orbital elements,

1 18152U 87055A   19266.89809000 -.00000026 +00000-0 -37323-5 0  9993
2 18152 082.4968 208.2339 0011119 265.1124 094.8834 15.06183936733244
Epoch (UTC): 23 September 2019 21:33:14
Eccentricity: 0.0011119
inclination: 82.4968°
perigee height: 540 km
apogee height: 555 km
right ascension of ascending node: 208.2339°
argument of perigee: 265.1124°
revolutions per day: 15.06183936
mean anomaly at epoch: 94.8834°
orbit number at epoch: 73324

The dashed part of the orbit path shows where the satellite is in the earth's shadow,  

DLR